Location: B?dimalle
(17.1788°N, 80.5377°E)
Time: 12:24:21
(UTC+00:00)

Courier 1B Rocket - Pass Details

Date: 15 December 2025
Orbit: 920 x 1201 km, 28.2° (Epoch: 25 January)

Event Time Altitude Azimuth Distance (km) Brightness Sun altitude
Exits shadow 23:52:51 14° 251° (WSW) 2,474 6.7 -15.7°
Maximum altitude 23:56:26 21° 213° (SSW) 2,020 6.5 -14.9°
Drops below altitude 10° 00:01:01 10° 166° (SSE) 2,636 7.7 -13.9°
Sets 00:04:16 0° 150° (SSE) 3,556 8.8 -13.2°
